Regional Weather Roundup
Issued by NWS State College, PA

Home | Current Version | Previous Version | Graphics & Text | Print | Product List | Glossary Off
Versions: 1 2 3 4 5 6 7 8 9 10 11 12 13 14 15 16 17 18 19 20 21 22 23 24 25 26 27 28 29 30 31 32 33 34 35 36 37 38 39 40 41 42 43 44 45 46 47 48 49 50

586
ASUS41 KCTP 111503
RWRCTP

REGIONAL WEATHER ROUNDUP
NATIONAL WEATHER SERVICE STATE COLLEGE PA
1000 AM EST THU FEB 11 2016

Note: "fair" indicates few or no clouds below 12,000 feet with no
significant weather and/or obstructions to visibility.

* = STATION THAT DOES NOT REPORT PRECIPITATION /E.G. RAIN...SNOW...ETC/
    THUNDER OR FOG.

PAZ002>004-007>009-013>016-020>023-029>032-111600-
WESTERN PENNSYLVANIA

CITY           SKY/WX    TMP DP  RH WIND       PRES   REMARKS
ERIE           LGT SNOW  16   7  67 NW16G29   30.07R VSB 3/4 WCI   1
MEADVILLE      LGT SNOW  12   4  70 W9G21     30.02R WCI   0
FRANKLIN*      CLOUDY    10   3  72 W17       30.03R WCI  -7
NEW CASTLE     FLURRIES  14   5  67 NW12G22   30.11R WCI   0
BEAVER COUNTY  CLOUDY    14   7  73 W9G16     30.09R WCI   2
BUTLER*        PTSUNNY   12   5  73 W13G20    30.11R WCI  -3
PITTSBURGH INT MOSUNNY   14   2  58 W16G25    30.10R WCI  -2
PITTSBURGH     CLOUDY    15   5  64 W15G21    30.10R WCI   0
INDIANA*       CLOUDY    12   5  73 W14G24    30.07R WCI  -3
LATROBE        LGT SNOW  12   7  79 MISG      30.11R
WASHINGTON CO* PTSUNNY   14   3  62 W9G16     30.13R WCI   2
$$

PAZ004>006-010>012-017>019-024>028-033>037-041-042-045-046-049>053-111600-
CENTRAL PENNSYLVANIA

CITY           SKY/WX    TMP DP  RH WIND       PRES   REMARKS
BRADFORD       LGT SNOW   9   1  70 W18G24    29.87R WCI -10
DUBOIS         PTSUNNY   10   2  69 W17G28    29.93R WCI  -8
CLEARFIELD     MOSUNNY   14   0  53 W15G25    29.96R WCI  -1
JOHNSTOWN      LGT SNOW   9  -1  64 W23G31    29.93R VSB 3/4 WCI -11
ALTOONA        FLURRIES  13   1  59 W22G29    30.01R WCI  -6
STATE COLLEGE  MOSUNNY   16   0  48 NW21      29.98R WCI  -2
WILLIAMSPORT   PTSUNNY   20   2  45 W18G24    29.96R WCI   5
SELINSGROVE    MOSUNNY   19   1  45 W10G21    30.01R WCI   7
FT INDIANTOWN  MOSUNNY   19   0  44 W20G28    30.00R WCI   3
CAPITAL CITY   MOSUNNY   21   0  39 W13G23    30.04R WCI   9
HARRISBURG     MOSUNNY   20   4  50 NW18      30.04R WCI   5
YORK           MOSUNNY   19   8  62 W10G22    30.04S WCI   7
$$

PAZ038>040-043-044-047-048-054-055-060>062-067>071-111600-
EASTERN PENNSYLVANIA

CITY           SKY/WX    TMP DP  RH WIND       PRES   REMARKS
SCRANTON       PTSUNNY   17   0  47 W14G25    29.88R WCI   3
MOUNT POCONO   MOSUNNY   13  -2  51 W18G33    29.77R WCI  -4
ALLENTOWN      MOSUNNY   21   6  52 W16G24    29.95S WCI   7
QUAKERTOWN*    PTSUNNY   19  10  68 W12G18    29.97R WCI   7
READING        MOSUNNY   20   1  43 W20G28    29.99R WCI   4
LANCASTER      MOSUNNY   19   5  54 W22G29    30.02R WCI   2
COATESVILLE    LGT SNOW  18  10  73 W16G24    30.00R WCI   3
POTTSTOWN      MIX PCPN  19   2  47 W16G24    30.00R WCI   4
BLUE BELL        N/A     21   9  58 W12G25    29.98R WCI   9
DOYLESTOWN     NOT AVBL
WILLOW GROVE   NOT AVBL
NORTH PHILA    PTSUNNY   23  13  65 NW12      30.01S WCI  12
PHILADELPHIA   PTSUNNY   25   5  42 W28       30.03R WCI   9
$$




USA.gov is the U.S. government's official web portal to all federal, state and local government web resources and services.